Location: Mareuil
(49.1375°N, 3.0782°E)
Time: 22:44:36
(UTC+00:00)

Daily predictions for brighter satellites

Satellite Brightness Start Highest point End
(mag) Time Altitude Azimuth Time Altitude Azimuth Time Altitude Azimuth
COBE Rocket 4.2 18:19:13 10° N 18:24:14 80° WNW 18:29:21 10° SSW
Cosmos 1378 3.1 18:20:34 10° N 18:24:21 82° E 18:28:06 10° SSE
Cosmos 2074 Rocket 4.0 18:21:58 10° N 18:28:15 77° E 18:34:28 10° SSE
Cosmos 1707 3.7 18:28:01 10° N 18:31:27 28° ENE 18:34:53 10° SE
SL-16 R/B 3.8 18:29:38 10° N 18:33:43 20° NE 18:37:48 10° E
USA 234 3.9 18:28:56 10° ENE 18:35:17 55° NNW 18:41:39 10° W
Cosmos 2333 4.4 18:29:51 10° NNW 18:35:32 78° WSW 18:41:13 10° SSE
ADEOS Rocket 4.4 18:31:13 10° NE 18:37:07 25° E 18:43:14 10° SE
SJ-6B 3.8 18:33:34 10° SE 18:37:09 30° ENE 18:40:44 10° N
Aureole 1 Rocket 3.3 18:31:52 10° NNW 18:37:30 87° ENE 18:41:40 10° SSE
SPOT 3 Rocket 4.2 18:33:14 10° SE 18:37:54 36° ENE 18:42:36 10° N
Cosmos 2219 Rocket 2.2 18:36:02 10° NNW 18:41:40 83° ENE 18:47:16 10° SSE
MOS 1 4.4 18:36:36 10° SSE 18:42:13 63° ENE 18:47:51 10° N
COSMOS 2428 2.8 18:39:42 10° NNW 18:45:26 90° ENE 18:51:08 10° SSE
Cosmos 1939 Rocket 2.9 18:43:25 10° S 18:47:16 79° WSW 18:51:10 10° NNW
FREGAT/IRIS 2.5 18:46:26 10° SSE 18:49:11 52° ENE 18:51:57 10° N
NOAA 11 4.4 18:45:03 10° SSE 18:50:34 81° WSW 18:56:06 10° NNW
ATLAS 2AS CENTAUR R/B 3.0 18:42:50 10° NW 18:50:39 85° SW 18:57:48 10° SE
CZ-4C R/B 4.2 18:46:02 10° WNW 18:50:52 27° NNW 18:56:25 10° NE
Cosmos 2154 Rocket 4.0 18:44:50 10° N 18:51:03 70° ENE 18:57:13 10° SSE
Cosmos 2360 Rocket 4.1 18:48:25 10° NW 18:53:18 31° WSW 18:58:11 10° SSW
CZ-2D R/B 4.0 18:51:09 10° S 18:54:51 54° W 18:58:37 10° NNW
Okean 1 Rocket 2.9 18:58:13 10° S 19:02:31 70° E 19:06:53 10° NNE
ASTEX 1 3.4 18:58:51 10° NNE 19:03:40 56° E 19:08:28 10° S
SL-8 Rocket 4.4 18:59:24 10° N 19:05:15 41° ENE 19:10:33 12° SE
SL-8 R/B 3.7 19:01:58 10° WSW 19:06:44 67° SSE 19:10:24 17° E
Meteor 1-12 Rocket 4.3 19:02:08 10° SSW 19:07:52 86° W 19:13:35 10° N
Resurs 01 Rocket 2.7 19:05:43 18° ESE 19:07:56 27° ENE 19:11:39 10° N
H-2A R/B 2.3 19:04:22 11° SE 19:08:48 47° ENE 19:13:37 10° N
Cosmos 2219 3.6 19:04:04 10° S 19:09:23 40° ESE 19:14:43 10° NE
Cosmos 2227 Rocket 3.1 19:05:04 10° SSE 19:09:32 25° ESE 19:14:02 10° NE
GP-B 3.6 19:07:40 10° N 19:12:04 64° W 19:16:27 10° SSW
BREEZE M DEB (TANK) 1.6 19:13:16 10° W 19:15:27 86° NNW 19:17:51 20° E
SAR-Lupe-2 3.5 19:12:43 10° NNE 19:16:20 87° ESE 19:19:55 10° SSW
ARGOS 3.3 19:12:30 12° SE 19:17:16 54° ENE 19:22:31 10° N
ERBS 3.7 19:15:13 10° NW 19:18:16 29° NNE 19:19:52 20° ENE
Cosmos 1544 3.4 19:16:02 10° SSW 19:19:35 65° WNW 19:23:12 10° N
USA 186 1.9 19:16:31 10° SSE 19:19:54 87° WSW 19:23:21 10° NNW
Cosmos 2297 Rocket 2.9 19:15:27 10° SSE 19:20:20 31° ESE 19:25:14 10° NE
EO 1 Delta rocket 4.5 19:15:38 10° S 19:22:30 88° W 19:27:56 10° N
Cosmos 1437 Rocket 3.7 19:19:23 10° N 19:22:40 26° ENE 19:23:15 25° E
BREEZE-M DEB (TANK) 3.6 19:20:47 10° W 19:24:54 75° N 19:31:47 17° E
Cosmos 1190 Rocket 4.0 19:20:59 10° NNW 19:26:19 70° ENE 19:30:01 20° SE
Cosmos 405 Rocket 2.9 19:26:20 22° SSE 19:28:19 42° E 19:31:51 10° NNE
RESURS DK-1 4.2 19:30:21 10° N 19:33:07 17° NE 19:34:01 16° ENE
Cosmos 389 Rocket 2.3 19:30:17 10° NNW 19:33:44 86° W 19:35:42 24° S
Cosmos 1892 Rocket 3.5 19:31:06 10° N 19:35:35 76° E 19:38:37 20° SSE
FAST 4.5 19:33:00 10° S 19:36:09 83° W 19:38:47 10° N
Meteor 1-24 Rocket 4.2 19:31:19 10° N 19:36:48 44° ENE 19:39:27 28° SE
NOSS 0 Rocket 4.2 19:31:06 10° NW 19:37:16 67° WSW 19:42:56 12° SSE
Nadezhda 1 Rocket 4.5 19:32:05 10° SSW 19:38:03 61° WNW 19:44:07 10° N
Cosmos 2333 Rocket 3.5 19:33:23 10° NW 19:38:36 38° WSW 19:43:50 10° S
MetOp-A 4.3 19:37:09 25° SE 19:40:06 56° ENE 19:45:21 10° N
GENESIS II 4.4 19:36:52 10° NW 19:40:58 61° NE 19:42:10 41° ESE
Okean 1-7 Rocket 3.5 19:37:02 10° N 19:41:29 89° ENE 19:44:39 19° S
SL-24 R/B 4.3 19:46:07 35° SE 19:47:52 60° ENE 19:52:45 10° N
In-Cosmos 22 4.1 19:42:31 10° NNW 19:47:53 82° W 19:52:32 15° S
Cosmos 2237 Rocket 2.3 19:43:03 10° NNW 19:48:47 76° WSW 19:52:31 22° SSE
Cosmos 1805 4.2 19:53:34 32° NE 19:53:34 32° NE 19:56:09 10° NNE
Cosmos 1461 4.2 19:48:48 10° WSW 19:52:32 37° NW 19:56:16 10° NNE
Meteor 1-4 Rocket 2.7 19:50:48 10° NNW 19:54:21 66° W 19:55:34 37° SSW
Meteor 2-5 Rocket 3.7 19:49:18 10° N 19:55:08 79° ENE 19:58:36 26° SSE
Cosmos 2056 Rocket 3.5 19:50:37 10° SSW 19:56:01 71° ESE 20:01:25 10° NNE
Cosmos 614 Rocket 4.3 19:51:42 10° NNW 19:56:54 65° WSW 20:00:10 22° S
Cosmos 1674 2.7 19:53:38 10° N 19:57:14 57° ENE 19:57:14 57° ENE
CZ-2C R/B 3.0 19:55:02 32° SSE 19:57:31 74° ENE 20:03:03 10° N
NOSS 3-4 (A) 4.4 19:51:05 10° NW 19:57:52 53° WSW 20:03:35 17° SSE
Cosmos 1980 4.1 19:52:17 10° NW 19:57:52 61° WSW 20:01:34 21° S
NOSS 3-4 (C) 4.4 19:51:11 10° NW 19:57:58 54° WSW 20:03:39 18° SSE
Cosmos 407 Rocket 3.9 19:53:25 10° NNW 19:58:29 60° WSW 20:01:46 21° S
DMSP B5D2-2 4.3 20:00:24 10° NNE 20:05:32 47° E 20:06:02 46° ESE
Terra 3.7 20:06:35 16° NE 20:06:35 16° NE 20:08:59 10° NNE
SPOT 1/Viking Rocket 4.5 20:07:50 30° ENE 20:08:00 30° ENE 20:12:28 10° N
Cosmos 1624 Rocket 3.9 20:02:56 10° SSW 20:08:08 89° ESE 20:13:23 10° NNE
Cosmos 1741 Rocket 4.5 20:05:17 10° NNW 20:10:24 43° ENE 20:11:02 41° ENE
Meteor 1-22 Rocket 4.4 20:10:15 33° SSE 20:12:57 61° E 20:18:59 10° NNE
KORONAS-FOTON 3.8 20:12:57 10° N 20:16:22 70° N 20:16:22 70° N
SL-08 R/B 4.5 20:10:49 10° N 20:17:20 77° E 20:19:54 39° SSE
USA 234 4.1 20:13:12 18° ENE 20:17:42 45° N 20:23:51 10° WNW
Cosmos 1544 Rocket 3.5 20:16:56 45° SSW 20:18:19 86° WNW 20:22:49 10° N
SL-16 R/B 2.1 20:13:05 10° NNW 20:18:49 78° ENE 20:20:07 54° SE
Cosmos 1455 Rocket 3.3 20:16:22 23° SSW 20:19:03 70° W 20:23:31 10° N
Cosmos 2181 Rocket 4.2 20:13:13 10° SSW 20:19:26 73° W 20:25:49 10° N
Cosmos 1954 Rocket 4.0 20:14:35 10° NNW 20:19:50 76° WSW 20:21:17 48° S
ERS-1 Rocket 3.8 20:20:34 35° ENE 20:20:34 35° ENE 20:24:51 10° N
ADEOS Rocket 3.6 20:15:57 10° NNE 20:23:12 80° WNW 20:30:56 10° SSW
Spot 2 Rocket 3.3 20:23:09 64° SE 20:23:53 78° ENE 20:28:57 10° NNW
Cosmos 1140 Rocket 4.1 20:20:33 10° NNW 20:25:36 52° WSW 20:27:31 34° SSW
Nadezhda 3 Rocket 4.1 20:32:10 50° E 20:32:10 50° E 20:38:00 10° NNE
Cosmos 1766 3.8 20:35:10 56° NNW 20:35:10 56° NNW 20:38:28 10° N
Cosmos 2218 Rocket 4.5 20:28:52 10° NNW 20:35:08 59° W 20:39:05 23° SSW
Cosmos 2082 3.6 20:34:48 66° SE 20:35:13 69° ESE 20:40:56 10° NNE
Cosmos 1626 Rocket 3.7 20:32:35 10° NNW 20:36:45 70° WNW 20:36:45 70° WNW
CZ-2C R/B 3.0 20:32:15 10° NNE 20:36:52 50° ENE 20:36:52 50° ENE
CZ-4C R/B 4.3 20:36:25 10° NW 20:41:32 25° N 20:46:28 13° ENE
Resurs 01 Rocket 2.7 20:43:17 35° SW 20:44:15 39° W 20:48:27 10° NNW
H-2A R/B 3.8 20:45:01 13° SW 20:48:28 26° W 20:52:39 10° NW
Cosmos 1821 Rocket 3.8 20:42:55 10° N 20:49:07 73° E 20:49:26 71° ESE
SL-8 R/B 4.0 20:44:25 10° W 20:48:22 60° W 20:48:22 60° W
Cosmos 1452 Rocket 4.1 20:52:11 45° NE 20:52:11 45° NE 20:55:50 10° NNE
Cosmos 2227 Rocket 2.6 20:47:32 10° SW 20:53:08 63° WNW 20:58:48 10° NNE
Cosmos 2219 4.4 20:48:07 10° WSW 20:53:33 41° NW 20:59:00 10° NNE
MetOp-B 4.3 20:54:15 62° SW 20:54:47 66° WSW 21:00:09 10° NNW
Cosmos 1626 4.2 20:53:01 10° N 20:54:36 24° N 20:54:36 24° N
Cosmos 1602 Rocket 4.3 20:52:54 10° NNW 20:56:34 50° WNW 20:56:34 50° WNW
Cosmos 2297 Rocket 2.9 20:58:39 10° SW 21:04:09 51° NW 21:09:41 10° NNE
Meteor 1-21 Rocket 4.4 20:59:52 10° N 21:05:16 68° NE 21:05:16 68° NE
SPOT 5 3.7 21:09:37 44° N 21:09:37 44° N 21:13:09 10° N
RESURS DK-1 4.0 21:07:32 10° NNW 21:09:54 33° NW 21:09:54 33° NW
Cosmos 1943 3.8 21:16:47 10° NNW 21:21:25 50° NNE 21:21:25 50° NNE
Terra 3.4 21:45:29 32° NNW 21:45:29 32° NNW 21:48:04 10° NNW
Cosmos 1934 Rocket 4.5 21:47:39 10° NNW 21:52:49 55° WNW 21:52:49 55° WNW
USA 234 3.5 22:00:33 63° N 22:00:33 63° N 22:06:40 10° NW
SL-16 R/B 4.2 21:58:22 10° NW 22:02:00 19° W 22:02:00 19° W
CZ-2C R/B 4.4 22:13:04 10° N 22:17:42 28° WNW 22:18:23 27° WNW
CZ-4C R/B 3.5 22:25:17 10° NW 22:31:37 45° NNE 22:31:37 45° NNE
Cosmos 2263 Rocket 4.0 23:06:41 27° N 23:06:41 27° N 23:09:18 10° NNE
Mayak 2.1 23:22:17 10° N 23:22:17 10° N 23:22:17 10° N
